LHA14L EDDM-LGIR

Flight info

Callsign LHA14L
Flight time 2h 18m
Altitude 37000
Route VAVOR3E VAVOR M867 RADIZ DCT SABAD DCT NERRA DCT PETAK DCT PINDO UL607 GIVIS T514 XAVIS
Aircraft A319/M-SDE3FGHIRWY/LB1

Departure

Time 2026-05-01 08:33
Airport Munich Airport (EDDM)

Arrival

Time 2026-05-01 10:51
Airport Heraklion International Nikos Kazantzakis Airport (LGIR)
Time Latitude Longitude Altitude Speed Heading
2026-05-01 07:59 48.35321 11.78320 1486 ft 0 kts 83°
2026-05-01 08:21 48.35319 11.78299 1481 ft 4 kts 83°
2026-05-01 08:21 48.35316 11.78258 1479 ft 4 kts 83°
2026-05-01 08:21 48.35314 11.78226 1472 ft 4 kts 111°
2026-05-01 08:22 48.35332 11.78202 1476 ft 4 kts 167°
2026-05-01 08:22 48.35356 11.78196 1478 ft 2 kts 173°
2026-05-01 08:22 48.35358 11.78196 1475 ft 0 kts 173°
2026-05-01 08:25 48.35357 11.78196 1475 ft 1 kts 173°
2026-05-01 08:26 48.35320 11.78202 1482 ft 8 kts 173°
2026-05-01 08:26 48.35252 11.78214 1485 ft 10 kts 173°
2026-05-01 08:26 48.35204 11.78162 1481 ft 10 kts 261°
2026-05-01 08:26 48.35195 11.78052 1485 ft 11 kts 263°
2026-05-01 08:27 48.35187 11.77939 1485 ft 11 kts 263°
2026-05-01 08:27 48.35165 11.77837 1475 ft 10 kts 224°
2026-05-01 08:27 48.35093 11.77827 1485 ft 13 kts 173°
2026-05-01 08:27 48.34986 11.77845 1483 ft 16 kts 173°
2026-05-01 08:28 48.34877 11.77864 1485 ft 16 kts 173°
2026-05-01 08:28 48.34783 11.77881 1481 ft 13 kts 173°
2026-05-01 08:28 48.34698 11.77895 1473 ft 11 kts 175°
2026-05-01 08:28 48.34657 11.77809 1485 ft 14 kts 263°
2026-05-01 08:29 48.34643 11.77640 1485 ft 18 kts 263°
2026-05-01 08:29 48.34629 11.77454 1485 ft 18 kts 263°
2026-05-01 08:29 48.34615 11.77274 1485 ft 17 kts 263°
2026-05-01 08:29 48.34602 11.77100 1485 ft 16 kts 263°
2026-05-01 08:30 48.34589 11.76933 1485 ft 16 kts 263°
2026-05-01 08:30 48.34577 11.76777 1480 ft 11 kts 263°
2026-05-01 08:30 48.34544 11.76692 1485 ft 10 kts 193°
2026-05-01 08:30 48.34473 11.76701 1478 ft 11 kts 174°
2026-05-01 08:31 48.34406 11.76756 1485 ft 12 kts 128°
2026-05-01 08:31 48.34371 11.76868 1480 ft 12 kts 113°
2026-05-01 08:31 48.34337 11.76987 1484 ft 13 kts 113°
2026-05-01 08:31 48.34299 11.77118 1477 ft 13 kts 113°
2026-05-01 08:32 48.34272 11.77197 1477 ft 13 kts 128°
2026-05-01 08:32 48.34234 11.77260 1483 ft 6 kts 110°
2026-05-01 08:32 48.34235 11.77284 1479 ft 1 kts 82°
2026-05-01 08:32 48.34248 11.77437 1485 ft 46 kts 83°
2026-05-01 08:33 48.34311 11.78261 1486 ft 110 kts 83°
2026-05-01 08:33 48.34416 11.79619 1688 ft 138 kts 85°
2026-05-01 08:33 48.34520 11.81038 2360 ft 136 kts 84°
2026-05-01 08:33 48.34623 11.82466 2950 ft 142 kts 85°
2026-05-01 08:34 48.34739 11.84046 3248 ft 163 kts 86°
2026-05-01 08:34 48.34871 11.85849 3566 ft 185 kts 85°
2026-05-01 08:34 48.35025 11.87905 3923 ft 211 kts 85°
2026-05-01 08:34 48.35196 11.90166 4664 ft 222 kts 85°
2026-05-01 08:35 48.35378 11.92505 5490 ft 228 kts 85°
2026-05-01 08:35 48.35322 11.94893 6283 ft 233 kts 108°
2026-05-01 08:35 48.34412 11.96921 7068 ft 241 kts 137°
2026-05-01 08:35 48.33087 11.98509 7888 ft 246 kts 140°
2026-05-01 08:36 48.31725 12.00094 8679 ft 250 kts 139°
2026-05-01 08:36 48.30298 12.01629 9471 ft 257 kts 148°
2026-05-01 08:36 48.28589 12.02560 10199 ft 270 kts 165°
2026-05-01 08:36 48.26626 12.02679 10572 ft 292 kts 180°
2026-05-01 08:37 48.24569 12.02526 11220 ft 299 kts 180°
2026-05-01 08:37 48.22474 12.02380 11941 ft 303 kts 179°
2026-05-01 08:37 48.20350 12.02244 12671 ft 308 kts 179°
2026-05-01 08:37 48.18203 12.02563 12885 ft 324 kts 159°
2026-05-01 08:38 48.16132 12.04066 13041 ft 342 kts 146°
2026-05-01 08:38 48.14028 12.05917 13360 ft 358 kts 146°
2026-05-01 08:38 48.11861 12.07835 13947 ft 364 kts 146°
2026-05-01 08:38 48.09669 12.09767 14564 ft 368 kts 146°
2026-05-01 08:39 48.07450 12.11713 15162 ft 372 kts 146°
2026-05-01 08:39 48.05208 12.13676 15761 ft 375 kts 146°
2026-05-01 08:39 48.02949 12.15647 16367 ft 378 kts 146°
2026-05-01 08:39 48.00670 12.17630 16971 ft 381 kts 146°
2026-05-01 08:40 47.96049 12.21635 18183 ft 387 kts 145°
2026-05-01 08:40 47.93712 12.23663 18766 ft 390 kts 145°
2026-05-01 08:40 47.91352 12.25713 19274 ft 393 kts 145°
2026-05-01 08:41 47.88977 12.27772 19771 ft 397 kts 145°
2026-05-01 08:41 47.86585 12.29842 20270 ft 400 kts 145°
2026-05-01 08:41 47.84163 12.31935 20767 ft 404 kts 145°
2026-05-01 08:41 47.81720 12.34043 21250 ft 407 kts 145°
2026-05-01 08:42 47.79263 12.36162 21716 ft 411 kts 144°
2026-05-01 08:42 47.76779 12.38302 22173 ft 414 kts 144°
2026-05-01 08:42 47.74273 12.40458 22637 ft 418 kts 144°
2026-05-01 08:42 47.71818 12.42674 23040 ft 418 kts 140°
2026-05-01 08:43 47.69539 12.45337 23495 ft 418 kts 135°
2026-05-01 08:43 47.67267 12.48139 23939 ft 421 kts 135°
2026-05-01 08:43 47.65039 12.50886 24292 ft 423 kts 135°
2026-05-01 08:43 47.62772 12.53678 24667 ft 426 kts 135°
2026-05-01 08:44 47.60448 12.56459 25034 ft 430 kts 136°
2026-05-01 08:44 47.58076 12.59184 25397 ft 433 kts 137°
2026-05-01 08:44 47.55661 12.61882 25763 ft 436 kts 137°
2026-05-01 08:44 47.53223 12.64580 26121 ft 439 kts 137°
2026-05-01 08:45 47.50778 12.67291 26425 ft 441 kts 137°
2026-05-01 08:45 47.48315 12.70035 26773 ft 444 kts 137°
2026-05-01 08:45 47.45848 12.72800 27055 ft 446 kts 137°
2026-05-01 08:45 47.43372 12.75583 27325 ft 448 kts 137°
2026-05-01 08:46 47.40889 12.78380 27654 ft 451 kts 137°
2026-05-01 08:46 47.38391 12.81189 27965 ft 453 kts 137°
2026-05-01 08:46 47.35869 12.84016 28287 ft 456 kts 137°
2026-05-01 08:46 47.33339 12.86845 28573 ft 458 kts 137°
2026-05-01 08:47 47.30797 12.89687 28878 ft 460 kts 137°
2026-05-01 08:47 47.28241 12.92549 29163 ft 462 kts 137°
2026-05-01 08:47 47.25673 12.95420 29467 ft 465 kts 137°
2026-05-01 08:47 47.23089 12.98301 29776 ft 467 kts 137°
2026-05-01 08:48 47.20529 13.01146 30060 ft 469 kts 137°
2026-05-01 08:48 47.17916 13.04044 30382 ft 470 kts 137°
2026-05-01 08:48 47.15308 13.06935 30762 ft 469 kts 137°
2026-05-01 08:48 47.12709 13.09815 31140 ft 468 kts 136°
2026-05-01 08:49 47.10111 13.12689 31505 ft 467 kts 136°
2026-05-01 08:49 47.07516 13.15556 31838 ft 467 kts 136°
2026-05-01 08:49 47.04920 13.18418 32188 ft 466 kts 136°
2026-05-01 08:49 47.02328 13.21270 32522 ft 466 kts 136°
2026-05-01 08:50 46.99734 13.24121 32845 ft 466 kts 136°
2026-05-01 08:50 46.97143 13.26968 33167 ft 466 kts 136°
2026-05-01 08:50 46.94550 13.29816 33475 ft 466 kts 135°
2026-05-01 08:50 46.91963 13.32657 33761 ft 466 kts 135°
2026-05-01 08:51 46.89361 13.35514 34087 ft 466 kts 135°
2026-05-01 08:51 46.86770 13.38354 34410 ft 466 kts 135°
2026-05-01 08:51 46.84175 13.41191 34742 ft 465 kts 135°
2026-05-01 08:51 46.81588 13.44014 35031 ft 465 kts 136°
2026-05-01 08:52 46.78998 13.46837 35326 ft 464 kts 136°
2026-05-01 08:52 46.76413 13.49652 35638 ft 464 kts 136°
2026-05-01 08:52 46.73826 13.52466 35939 ft 463 kts 136°
2026-05-01 08:52 46.71242 13.55270 36244 ft 463 kts 136°
2026-05-01 08:53 46.68663 13.58066 36501 ft 463 kts 136°
2026-05-01 08:53 46.66084 13.60862 36742 ft 463 kts 136°
2026-05-01 08:53 46.63498 13.63665 36969 ft 463 kts 136°
2026-05-01 08:53 46.60915 13.66457 37229 ft 462 kts 136°
2026-05-01 08:54 46.58329 13.69251 37372 ft 462 kts 136°
2026-05-01 08:54 46.55751 13.72033 37398 ft 463 kts 137°
2026-05-01 08:54 46.50570 13.77605 37401 ft 463 kts 137°
2026-05-01 08:55 46.45422 13.83125 37400 ft 464 kts 137°
2026-05-01 08:55 46.40237 13.88681 37402 ft 464 kts 137°
2026-05-01 08:56 46.35035 13.94236 37400 ft 464 kts 137°
2026-05-01 08:56 46.29831 13.99789 37407 ft 465 kts 137°
2026-05-01 08:57 46.24626 14.05336 37417 ft 465 kts 137°
2026-05-01 08:57 46.19412 14.10865 37424 ft 465 kts 137°
2026-05-01 08:58 46.14193 14.16382 37425 ft 464 kts 137°
2026-05-01 08:58 46.08979 14.21887 37424 ft 464 kts 137°
2026-05-01 08:59 46.03765 14.27374 37428 ft 464 kts 137°
2026-05-01 08:59 45.98547 14.32852 37424 ft 464 kts 137°
2026-05-01 09:00 45.93330 14.38324 37424 ft 464 kts 137°
2026-05-01 09:00 45.88156 14.43738 37420 ft 464 kts 137°
2026-05-01 09:01 45.82932 14.49179 37422 ft 464 kts 137°
2026-05-01 09:01 45.77715 14.54601 37419 ft 463 kts 137°
2026-05-01 09:02 45.72495 14.60018 37421 ft 463 kts 137°
2026-05-01 09:02 45.67287 14.65432 37419 ft 463 kts 138°
2026-05-01 09:03 45.62077 14.70830 37413 ft 463 kts 138°
2026-05-01 09:03 45.56839 14.76224 37412 ft 464 kts 138°
2026-05-01 09:04 45.51599 14.81599 37415 ft 465 kts 138°
2026-05-01 09:04 45.46344 14.86983 37405 ft 465 kts 138°
2026-05-01 09:05 45.41198 14.92499 37394 ft 463 kts 136°
2026-05-01 09:05 45.36130 14.98198 37402 ft 464 kts 135°
2026-05-01 09:06 45.31053 15.03886 37406 ft 465 kts 136°
2026-05-01 09:06 45.25929 15.09514 37409 ft 466 kts 137°
2026-05-01 09:07 45.20786 15.15109 37410 ft 466 kts 137°
2026-05-01 09:07 45.15633 15.20721 37408 ft 467 kts 137°
2026-05-01 09:08 45.10523 15.26289 37411 ft 467 kts 137°
2026-05-01 09:08 45.05360 15.31905 37413 ft 468 kts 137°
2026-05-01 09:09 45.00187 15.37503 37411 ft 468 kts 137°
2026-05-01 09:09 44.95010 15.43097 37405 ft 469 kts 137°
2026-05-01 09:10 44.89827 15.48690 37403 ft 469 kts 137°
2026-05-01 09:10 44.84631 15.54277 37396 ft 470 kts 138°
2026-05-01 09:11 44.79431 15.59853 37395 ft 470 kts 138°
2026-05-01 09:11 44.74225 15.65433 37387 ft 471 kts 138°
2026-05-01 09:12 44.69000 15.71014 37390 ft 471 kts 138°
2026-05-01 09:12 44.63805 15.76549 37382 ft 472 kts 139°
2026-05-01 09:13 44.58574 15.82119 37377 ft 472 kts 139°
2026-05-01 09:13 44.53342 15.87679 37373 ft 472 kts 139°
2026-05-01 09:14 44.48093 15.93230 37368 ft 473 kts 139°
2026-05-01 09:14 44.42846 15.98768 37362 ft 473 kts 139°
2026-05-01 09:15 44.37584 16.04311 37355 ft 473 kts 139°
2026-05-01 09:15 44.32327 16.09848 37358 ft 474 kts 140°
2026-05-01 09:16 44.27063 16.15372 37345 ft 474 kts 140°
2026-05-01 09:17 44.19136 16.23652 37337 ft 475 kts 140°
2026-05-01 09:17 44.11206 16.31929 37329 ft 475 kts 140°
2026-05-01 09:18 44.03263 16.40173 37322 ft 475 kts 141°
2026-05-01 09:19 43.95345 16.48356 37306 ft 475 kts 141°
2026-05-01 09:20 43.87373 16.56586 37303 ft 477 kts 140°
2026-05-01 09:21 43.76707 16.67564 37293 ft 478 kts 141°
2026-05-01 09:21 43.68672 16.75770 37292 ft 479 kts 141°
2026-05-01 09:22 43.57960 16.86701 37286 ft 479 kts 141°
2026-05-01 09:23 43.49917 16.94870 37282 ft 479 kts 141°
2026-05-01 09:24 43.41873 17.03002 37288 ft 478 kts 142°
2026-05-01 09:25 43.31195 17.13774 37283 ft 478 kts 142°
2026-05-01 09:26 43.24023 17.20979 37277 ft 478 kts 142°
2026-05-01 09:26 43.15974 17.29039 37269 ft 478 kts 143°
2026-05-01 09:27 43.07912 17.37074 37263 ft 478 kts 143°
2026-05-01 09:28 43.02540 17.42426 37261 ft 478 kts 143°
2026-05-01 09:28 42.97150 17.47782 37255 ft 479 kts 143°
2026-05-01 09:29 42.89360 17.56239 37243 ft 477 kts 131°
2026-05-01 09:30 42.82932 17.66583 37240 ft 477 kts 129°
2026-05-01 09:30 42.76513 17.76877 37233 ft 478 kts 129°
2026-05-01 09:31 42.72205 17.83759 37224 ft 478 kts 129°
2026-05-01 09:32 42.65741 17.94093 37211 ft 479 kts 130°
2026-05-01 09:32 42.59248 18.04411 37202 ft 480 kts 130°
2026-05-01 09:33 42.54902 18.11291 37198 ft 480 kts 130°
2026-05-01 09:34 42.48380 18.21621 37195 ft 481 kts 130°
2026-05-01 09:34 42.41835 18.31927 37197 ft 482 kts 131°
2026-05-01 09:35 42.35269 18.42239 37190 ft 482 kts 131°
2026-05-01 09:36 42.30890 18.49106 37189 ft 483 kts 131°
2026-05-01 09:36 42.26497 18.55970 37188 ft 483 kts 131°
2026-05-01 09:37 42.22095 18.62819 37188 ft 483 kts 131°
2026-05-01 09:37 42.15513 18.73048 37189 ft 484 kts 131°
2026-05-01 09:38 42.08876 18.83323 37190 ft 485 kts 131°
2026-05-01 09:39 42.02224 18.93585 37189 ft 485 kts 132°
2026-05-01 09:39 41.97782 19.00422 37187 ft 486 kts 132°
2026-05-01 09:40 41.91104 19.10671 37184 ft 487 kts 132°
2026-05-01 09:41 41.86637 19.17505 37180 ft 487 kts 132°
2026-05-01 09:41 41.79920 19.27750 37179 ft 488 kts 133°
2026-05-01 09:42 41.75351 19.34484 37174 ft 488 kts 135°
2026-05-01 09:43 41.65536 19.47047 37160 ft 489 kts 139°
2026-05-01 09:43 41.60614 19.53321 37154 ft 489 kts 137°
2026-05-01 09:44 41.53331 19.62810 37149 ft 490 kts 137°
2026-05-01 09:45 41.48439 19.69147 37149 ft 490 kts 138°
2026-05-01 09:45 41.41065 19.78607 37147 ft 491 kts 138°
2026-05-01 09:46 41.36146 19.84912 37144 ft 491 kts 138°
2026-05-01 09:46 41.31222 19.91224 37137 ft 491 kts 138°
2026-05-01 09:47 41.26294 19.97519 37130 ft 492 kts 139°
2026-05-01 09:47 41.21355 20.03812 37124 ft 492 kts 139°
2026-05-01 09:48 41.16401 20.10102 37127 ft 493 kts 139°
2026-05-01 09:48 41.11476 20.16349 37130 ft 493 kts 139°
2026-05-01 09:49 41.06514 20.22638 37138 ft 494 kts 139°
2026-05-01 09:49 41.01536 20.28914 37141 ft 494 kts 139°
2026-05-01 09:50 40.96549 20.35198 37150 ft 495 kts 139°
2026-05-01 09:50 40.91559 20.41479 37154 ft 495 kts 139°
2026-05-01 09:51 40.86563 20.47754 37162 ft 496 kts 139°
2026-05-01 09:51 40.81560 20.54023 37170 ft 496 kts 139°
2026-05-01 09:52 40.76552 20.60278 37180 ft 496 kts 139°
2026-05-01 09:52 40.71540 20.66526 37179 ft 496 kts 140°
2026-05-01 09:53 40.66519 20.72767 37178 ft 496 kts 140°
2026-05-01 09:53 40.61535 20.78957 37173 ft 496 kts 140°
2026-05-01 09:54 40.56519 20.85178 37174 ft 496 kts 140°
2026-05-01 09:54 40.51492 20.91390 37171 ft 496 kts 140°
2026-05-01 09:55 40.46447 20.97578 37177 ft 497 kts 141°
2026-05-01 09:55 40.41275 21.03594 37183 ft 496 kts 143°
2026-05-01 09:56 40.36043 21.09508 37183 ft 497 kts 143°
2026-05-01 09:56 40.30822 21.15457 37196 ft 498 kts 142°
2026-05-01 09:57 40.25611 21.21443 37211 ft 498 kts 142°
2026-05-01 09:57 40.20398 21.27423 37216 ft 499 kts 143°
2026-05-01 09:58 40.15178 21.33395 37215 ft 499 kts 143°
2026-05-01 09:58 40.09954 21.39351 37214 ft 499 kts 143°
2026-05-01 09:59 40.04753 21.45263 37220 ft 499 kts 143°
2026-05-01 09:59 39.99521 21.51206 37222 ft 499 kts 143°
2026-05-01 10:00 39.94286 21.57139 37224 ft 499 kts 143°
2026-05-01 10:00 39.89039 21.63067 37219 ft 499 kts 144°
2026-05-01 10:01 39.83786 21.68981 37222 ft 500 kts 144°
2026-05-01 10:01 39.78524 21.74900 37226 ft 500 kts 144°
2026-05-01 10:02 39.73255 21.80818 37223 ft 501 kts 144°
2026-05-01 10:02 39.67983 21.86734 37222 ft 501 kts 144°
2026-05-01 10:03 39.62686 21.92650 37223 ft 502 kts 144°
2026-05-01 10:03 39.57396 21.98544 37226 ft 503 kts 144°
2026-05-01 10:04 39.52082 22.04461 37230 ft 503 kts 144°
2026-05-01 10:04 39.46776 22.10371 37222 ft 503 kts 144°
2026-05-01 10:05 39.41455 22.16270 37221 ft 504 kts 145°
2026-05-01 10:05 39.36132 22.22162 37222 ft 504 kts 145°
2026-05-01 10:06 39.30796 22.28048 37230 ft 504 kts 145°
2026-05-01 10:06 39.25495 22.33887 37231 ft 504 kts 145°
2026-05-01 10:07 39.20158 22.39756 37237 ft 504 kts 145°
2026-05-01 10:07 39.14828 22.45619 37238 ft 504 kts 145°
2026-05-01 10:08 39.06821 22.54385 37240 ft 503 kts 145°
2026-05-01 10:09 39.01476 22.60217 37249 ft 504 kts 145°
2026-05-01 10:09 38.96134 22.66031 37248 ft 503 kts 146°
2026-05-01 10:10 38.90789 22.71841 37250 ft 503 kts 146°
2026-05-01 10:10 38.82773 22.80537 37242 ft 503 kts 146°
2026-05-01 10:11 38.77418 22.86336 37242 ft 503 kts 146°
2026-05-01 10:11 38.72069 22.92102 37235 ft 503 kts 146°
2026-05-01 10:12 38.67626 22.96894 37229 ft 502 kts 146°
2026-05-01 10:13 38.58709 23.06489 37217 ft 502 kts 146°
2026-05-01 10:13 38.53363 23.12215 37204 ft 501 kts 146°
2026-05-01 10:14 38.45325 23.20770 37201 ft 501 kts 146°
2026-05-01 10:14 38.39971 23.26468 37190 ft 501 kts 146°
2026-05-01 10:15 38.34617 23.32169 37185 ft 501 kts 146°
2026-05-01 10:15 38.29256 23.37852 37171 ft 501 kts 146°
2026-05-01 10:16 38.24799 23.42566 37166 ft 501 kts 147°
2026-05-01 10:17 38.16751 23.51057 37155 ft 501 kts 147°
2026-05-01 10:17 38.08704 23.59525 37154 ft 501 kts 147°
2026-05-01 10:18 38.00655 23.67971 37146 ft 500 kts 147°
2026-05-01 10:19 37.95286 23.73589 37150 ft 500 kts 147°
2026-05-01 10:19 37.89912 23.79201 37144 ft 501 kts 147°
2026-05-01 10:20 37.81844 23.87605 37145 ft 501 kts 147°
2026-05-01 10:20 37.76499 23.93160 37142 ft 501 kts 147°
2026-05-01 10:21 37.68421 24.01537 37135 ft 501 kts 147°
2026-05-01 10:22 37.60329 24.09913 37130 ft 502 kts 147°
2026-05-01 10:23 37.52231 24.18259 37133 ft 501 kts 147°
2026-05-01 10:23 37.44119 24.26592 37124 ft 502 kts 147°
2026-05-01 10:24 37.33297 24.37689 37129 ft 502 kts 147°
2026-05-01 10:25 37.22469 24.48748 37124 ft 501 kts 147°
2026-05-01 10:26 37.17053 24.54250 37122 ft 501 kts 147°
2026-05-01 10:27 37.06235 24.65245 37115 ft 500 kts 147°
2026-05-01 10:28 36.98115 24.73446 36739 ft 499 kts 147°
2026-05-01 10:28 36.92698 24.78890 35307 ft 499 kts 149°
2026-05-01 10:28 36.89833 24.81271 34643 ft 493 kts 155°
2026-05-01 10:29 36.83990 24.85795 33107 ft 495 kts 154°
2026-05-01 10:29 36.81057 24.88058 32275 ft 496 kts 154°
2026-05-01 10:30 36.75175 24.92596 30619 ft 498 kts 154°
2026-05-01 10:30 36.69315 24.97108 29007 ft 495 kts 154°
2026-05-01 10:31 36.63533 25.01552 27724 ft 482 kts 154°
2026-05-01 10:31 36.57879 25.05874 26521 ft 471 kts 154°
2026-05-01 10:32 36.52137 25.09451 25365 ft 456 kts 160°
2026-05-01 10:32 36.49291 25.11133 24812 ft 451 kts 160°
2026-05-01 10:32 36.43679 25.14415 23710 ft 441 kts 159°
2026-05-01 10:33 36.38183 25.17635 22495 ft 433 kts 159°
2026-05-01 10:33 36.32792 25.20809 21400 ft 425 kts 159°
2026-05-01 10:34 36.30133 25.22373 20884 ft 422 kts 159°
2026-05-01 10:34 36.27491 25.23923 20392 ft 418 kts 159°
2026-05-01 10:34 36.24867 25.25458 19926 ft 415 kts 159°
2026-05-01 10:35 36.19719 25.28476 19008 ft 409 kts 158°
2026-05-01 10:35 36.17153 25.29981 18554 ft 406 kts 158°
2026-05-01 10:35 36.14607 25.31477 18054 ft 404 kts 158°
2026-05-01 10:35 36.12080 25.32959 17544 ft 400 kts 158°
2026-05-01 10:36 36.07083 25.35880 16537 ft 394 kts 158°
2026-05-01 10:36 36.04612 25.37319 16042 ft 391 kts 158°
2026-05-01 10:36 36.02162 25.38745 15553 ft 388 kts 158°
2026-05-01 10:37 35.99729 25.40157 15074 ft 385 kts 158°
2026-05-01 10:37 35.94923 25.42949 14120 ft 379 kts 158°
2026-05-01 10:37 35.92548 25.44332 13625 ft 376 kts 158°
2026-05-01 10:38 35.90192 25.45702 13097 ft 373 kts 158°
2026-05-01 10:38 35.87856 25.47060 12567 ft 370 kts 158°
2026-05-01 10:38 35.85538 25.48404 12039 ft 367 kts 158°
2026-05-01 10:38 35.83236 25.49737 11512 ft 364 kts 158°
2026-05-01 10:39 35.80953 25.51058 11000 ft 361 kts 158°
2026-05-01 10:39 35.78689 25.52369 10495 ft 358 kts 158°
2026-05-01 10:39 35.76447 25.53668 10011 ft 355 kts 157°
2026-05-01 10:39 35.74255 25.54935 9863 ft 340 kts 157°
2026-05-01 10:40 35.72157 25.56152 9728 ft 327 kts 157°
2026-05-01 10:40 35.70178 25.57345 9597 ft 316 kts 153°
2026-05-01 10:40 35.68369 25.58798 9463 ft 306 kts 144°
2026-05-01 10:40 35.66728 25.60415 9205 ft 300 kts 143°
2026-05-01 10:41 35.65109 25.62009 8860 ft 297 kts 143°
2026-05-01 10:41 35.63506 25.63587 8502 ft 294 kts 143°
2026-05-01 10:41 35.60017 25.65899 7775 ft 283 kts 176°
2026-05-01 10:42 35.58097 25.65698 7396 ft 276 kts 200°
2026-05-01 10:42 35.56442 25.64592 7006 ft 270 kts 223°
2026-05-01 10:42 35.55290 25.62811 6614 ft 267 kts 243°
2026-05-01 10:42 35.54423 25.60796 6181 ft 267 kts 243°
2026-05-01 10:43 35.53553 25.58790 5752 ft 266 kts 243°
2026-05-01 10:43 35.52682 25.56790 5336 ft 265 kts 243°
2026-05-01 10:43 35.51816 25.54804 5035 ft 262 kts 243°
2026-05-01 10:43 35.50955 25.52825 5000 ft 264 kts 243°
2026-05-01 10:44 35.50089 25.50838 4985 ft 265 kts 242°
2026-05-01 10:44 35.49219 25.48845 4857 ft 264 kts 242°
2026-05-01 10:44 35.48352 25.46859 4730 ft 264 kts 242°
2026-05-01 10:44 35.47486 25.44874 4601 ft 264 kts 242°
2026-05-01 10:45 35.46617 25.42896 4475 ft 263 kts 240°
2026-05-01 10:45 35.45428 25.41294 4340 ft 250 kts 213°
2026-05-01 10:45 35.43833 25.40640 4215 ft 239 kts 184°
2026-05-01 10:45 35.42244 25.40980 4085 ft 229 kts 156°
2026-05-01 10:46 35.40854 25.41911 3962 ft 227 kts 151°
2026-05-01 10:46 35.39483 25.42858 3834 ft 226 kts 152°
2026-05-01 10:46 35.38098 25.43767 3706 ft 225 kts 159°
2026-05-01 10:46 35.36587 25.43856 3581 ft 216 kts 200°
2026-05-01 10:47 35.35442 25.42804 3459 ft 204 kts 238°
2026-05-01 10:47 35.34888 25.41248 3349 ft 198 kts 248°
2026-05-01 10:47 35.34322 25.39718 3219 ft 197 kts 245°
2026-05-01 10:47 35.33726 25.38210 3102 ft 195 kts 244°
2026-05-01 10:48 35.33148 25.36752 3002 ft 187 kts 245°
2026-05-01 10:48 35.32830 25.35238 2820 ft 183 kts 267°
2026-05-01 10:48 35.32901 25.33685 2622 ft 183 kts 275°
2026-05-01 10:48 35.33005 25.32140 2388 ft 180 kts 275°
2026-05-01 10:49 35.33104 25.30641 2157 ft 173 kts 276°
2026-05-01 10:49 35.33199 25.29214 1935 ft 164 kts 276°
2026-05-01 10:49 35.33289 25.27848 1697 ft 158 kts 276°
2026-05-01 10:49 35.33376 25.26555 1456 ft 146 kts 277°
2026-05-01 10:50 35.33457 25.25359 1241 ft 141 kts 278°
2026-05-01 10:50 35.33538 25.24181 1030 ft 137 kts 278°
2026-05-01 10:50 35.33617 25.23030 827 ft 135 kts 279°
2026-05-01 10:50 35.33697 25.21892 643 ft 134 kts 279°
2026-05-01 10:51 35.33776 25.20759 434 ft 133 kts 279°
2026-05-01 10:51 35.33853 25.19632 228 ft 132 kts 279°
2026-05-01 10:51 35.33931 25.18531 91 ft 119 kts 277°
2026-05-01 10:51 35.33991 25.17791 93 ft 45 kts 275°
2026-05-01 10:52 35.34016 25.17434 91 ft 35 kts 275°
2026-05-01 10:52 35.34029 25.17237 92 ft 18 kts 269°
2026-05-01 10:52 35.33991 25.17095 91 ft 11 kts 245°
2026-05-01 10:52 35.33953 25.17051 90 ft 7 kts 161°
2026-05-01 10:53 35.33939 25.17110 90 ft 8 kts 95°
2026-05-01 10:53 35.33934 25.17181 90 ft 8 kts 95°
2026-05-01 10:53 35.33929 25.17254 91 ft 9 kts 95°
2026-05-01 10:53 35.33924 25.17329 91 ft 9 kts 95°
2026-05-01 10:54 35.33918 25.17408 91 ft 10 kts 95°
2026-05-01 10:54 35.33911 25.17483 93 ft 8 kts 109°
2026-05-01 10:54 35.33864 25.17497 91 ft 7 kts 197°
2026-05-01 10:54 35.33859 25.17447 91 ft 7 kts 295°
2026-05-01 10:55 35.33879 25.17422 92 ft 3 kts 317°
2026-05-01 10:55 35.33881 25.17420 91 ft 0 kts 317°